Paris / Charles De Gaulle, France

10:56 AM CEST on August 21, 2017 (GMT +0200)
Charles de Gaulle

Weather History for LFPG - August, 2013

Change the Weather History Date:

Saturday, August 31, 2013

  Actual Average Record
Temperature  
Mean Temperature 66 °F -  
Max Temperature 73 °F 68 °F 89 °F (2005)
Min Temperature 60 °F 52 °F 48 °F (2003)
Cooling Degree Days 2    
Growing Degree Days 16 (Base 50)    
Moisture  
Dew Point 57 °F    
Average Humidity 74    
Maximum Humidity 88    
Minimum Humidity 57    
Precipitation  
Precipitation 0.00 in - - ()
Sea Level Pressure  
Sea Level Pressure 30.22 in    
Wind  
Wind Speed 6 mph ()    
Max Wind Speed 12 mph    
Max Gust Speed -    
Visibility 6.2 miles    
Events Rain    
Averages and records for this station are not official NWS values.
T = Trace of Precipitation, MM = Missing Value Source: Averaged Metar Reports

Daily Weather History Graph

Daily Weather History Graph

Search for Another Location

Airport or City:

Trip Planner

Search our weather history database for the weather conditions in past years. The results will help you decide how hot, cold, wet, or windy it might be!

Date:

Astronomy

Aug. 31, 2013 Rise Set
Actual Time 7:05 AM CEST 8:34 PM CEST
Civil Twilight 6:31 AM CEST 9:07 PM CEST
Nautical Twilight 5:51 AM CEST 9:47 PM CEST
Astronomical Twilight 5:07 AM CEST 10:30 PM CEST
Moon 2:05 AM CEST (8/31) 5:36 PM CEST (8/31)
Length of Visible Light 14h 35m
Length of Day
13h 29m
Waning Crescent, 23% of the Moon is Illuminated
Aug 31
Waning Crescent
Sep 5
New
Sep 12
First Quarter
Sep 19
Full
Sep 27
Last Quarter

Hourly Weather History & Observations

Time (CEST) Temp. Dew Point Humidity Pressure Visibility Wind Dir Wind Speed Gust Speed Precip Events Conditions
12:00 AM 64.4 °F 53.6 °F 68% 30.18 in - West 3.5 mph - N/A   Clear
12:30 AM 64.4 °F 53.6 °F 68% 30.18 in - WSW 3.5 mph - N/A   Clear
1:00 AM 62.6 °F 53.6 °F 72% 30.18 in - WSW 4.6 mph - N/A   Clear
1:30 AM 62.6 °F 53.6 °F 72% 30.18 in - WSW 3.5 mph - N/A   Clear
2:00 AM 62.6 °F 53.6 °F 72% 30.18 in - West 5.8 mph - N/A   Clear
2:30 AM 60.8 °F 53.6 °F 77% 30.18 in - West 3.5 mph - N/A   Clear
3:00 AM 60.8 °F 55.4 °F 82% 30.18 in - West 4.6 mph - N/A   Clear
3:30 AM 60.8 °F 55.4 °F 82% 30.18 in 6.2 mi West 4.6 mph - N/A   Mostly Cloudy
4:00 AM 60.8 °F 55.4 °F 82% 30.18 in 6.2 mi West 4.6 mph - N/A   Mostly Cloudy
4:30 AM 60.8 °F 57.2 °F 88% 30.18 in 6.2 mi West 4.6 mph - N/A   Mostly Cloudy
5:00 AM 60.8 °F 57.2 °F 88% 30.18 in 6.2 mi WNW 4.6 mph - N/A   Mostly Cloudy
5:30 AM 60.8 °F 57.2 °F 88% 30.18 in 6.2 mi WNW 4.6 mph - N/A   Mostly Cloudy
6:00 AM 62.6 °F 57.2 °F 82% 30.18 in 6.2 mi WSW 4.6 mph - N/A   Mostly Cloudy
6:30 AM 62.6 °F 57.2 °F 82% 30.18 in 6.2 mi SW 4.6 mph - N/A   Mostly Cloudy
7:00 AM 62.6 °F 57.2 °F 82% 30.18 in 6.2 mi WSW 5.8 mph - N/A   Mostly Cloudy
7:30 AM 62.6 °F 57.2 °F 82% 30.18 in 6.2 mi West 6.9 mph - N/A Rain Light Rain
8:00 AM 62.6 °F 59.0 °F 88% 30.21 in 6.2 mi West 5.8 mph - N/A   Mostly Cloudy
8:30 AM 62.6 °F 59.0 °F 88% 30.21 in 6.2 mi West 6.9 mph - N/A   Mostly Cloudy
9:00 AM 62.6 °F 59.0 °F 88% 30.21 in 6.2 mi West 6.9 mph - N/A   Mostly Cloudy
9:30 AM 62.6 °F 59.0 °F 88% 30.21 in 6.2 mi West 8.1 mph - N/A   Mostly Cloudy
10:00 AM 64.4 °F 60.8 °F 88% 30.21 in 6.2 mi West 6.9 mph - N/A   Mostly Cloudy
10:30 AM 66.2 °F 60.8 °F 83% 30.21 in 6.2 mi West 6.9 mph - N/A   Mostly Cloudy
11:00 AM 68.0 °F 60.8 °F 78% 30.21 in 6.2 mi WNW 8.1 mph - N/A   Mostly Cloudy
11:30 AM 68.0 °F 60.8 °F 78% 30.21 in 6.2 mi WNW 11.5 mph - N/A   Mostly Cloudy
12:00 PM 68.0 °F 60.8 °F 78% 30.21 in 6.2 mi WNW 10.4 mph - N/A   Mostly Cloudy
12:30 PM 68.0 °F 59.0 °F 73% 30.21 in 6.2 mi NW 9.2 mph - N/A   Mostly Cloudy
1:00 PM 69.8 °F 59.0 °F 68% 30.21 in 6.2 mi NW 10.4 mph - N/A   Mostly Cloudy
1:30 PM 69.8 °F 59.0 °F 68% 30.21 in 6.2 mi WNW 9.2 mph - N/A   Mostly Cloudy
2:00 PM 69.8 °F 59.0 °F 68% 30.24 in 6.2 mi NW 10.4 mph - N/A   Mostly Cloudy
2:30 PM 69.8 °F 59.0 °F 68% 30.24 in 6.2 mi NW 8.1 mph - N/A   Mostly Cloudy
3:00 PM 69.8 °F 59.0 °F 68% 30.24 in 6.2 mi NW 6.9 mph - N/A   Mostly Cloudy
3:30 PM 69.8 °F 59.0 °F 68% 30.24 in 6.2 mi NNW 5.8 mph - N/A   Mostly Cloudy
4:00 PM 69.8 °F 59.0 °F 68% 30.24 in 6.2 mi NW 8.1 mph - N/A   Mostly Cloudy
4:30 PM 71.6 °F 59.0 °F 64% 30.24 in 6.2 mi NW 6.9 mph - N/A   Mostly Cloudy
5:00 PM 71.6 °F 57.2 °F 60% 30.24 in 6.2 mi NNW 5.8 mph - N/A   Mostly Cloudy
5:30 PM 73.4 °F 57.2 °F 57% 30.24 in 6.2 mi NW 8.1 mph - N/A   Mostly Cloudy
6:00 PM 73.4 °F 57.2 °F 57% 30.24 in 6.2 mi NW 6.9 mph - N/A   Mostly Cloudy
6:30 PM 71.6 °F 55.4 °F 57% 30.24 in 6.2 mi North 9.2 mph - N/A   Mostly Cloudy
7:00 PM 71.6 °F 55.4 °F 57% 30.24 in 6.2 mi NNW 10.4 mph - N/A   Mostly Cloudy
7:30 PM 71.6 °F 57.2 °F 60% 30.24 in 6.2 mi North 11.5 mph - N/A   Mostly Cloudy
8:00 PM 69.8 °F 57.2 °F 64% 30.24 in 6.2 mi NNE 11.5 mph - N/A   Mostly Cloudy
8:30 PM 68.0 °F 57.2 °F 68% 30.27 in 6.2 mi NNE 10.4 mph - N/A   Mostly Cloudy
9:00 PM 66.2 °F 55.4 °F 68% 30.27 in 6.2 mi North 9.2 mph - N/A   Mostly Cloudy
9:30 PM 64.4 °F 55.4 °F 73% 30.30 in 6.2 mi North 8.1 mph - N/A   Mostly Cloudy
10:00 PM 64.4 °F 55.4 °F 73% 30.30 in 6.2 mi North 5.8 mph - N/A   Mostly Cloudy
10:30 PM 62.6 °F 53.6 °F 72% 30.30 in - North 8.1 mph - N/A   Clear
11:00 PM 62.6 °F 53.6 °F 72% 30.30 in 6.2 mi North 8.1 mph - N/A   Mostly Cloudy
11:30 PM 60.8 °F 53.6 °F 77% 30.33 in - North 10.4 mph - N/A   Clear